Volver al catálogo

FENGYUN 1C DEB

ActivoPO
NORAD 30341·DEBRIS·🇨🇳 China

Lanzado May 10, 1999 desde Taiyuan Satellite Launch Center

Loading…

Próximos Pases (próximas 24 horas)

TLE

ActualizadoSource: Space-Track

Época: Sep 14, 2026, 05:08 UTC

1 30341U 99025ABC 26257.21395811  .00004303  00000-0  14274-2 0  9998
2 30341  99.2100 169.2574 0049162 341.4391 174.3379 14.37690015 10354

Sigue FENGYUN 1C DEB en tiempo real con AllMySat

Download on the App Store